| time (UTC) | temp F | wind direction | speed knots | gust knots | rain 1hr in | rain 24hr in | rain mn in | humidity % | barometer mb |
| 20260503184625 | 59 | 198 | 4.3 | 13.0 | 0.02 | 0.61 | 0.61 | 96 | |
| 20260503184123 | 59 | 200 | 5.2 | 13.0 | 0.02 | 0.61 | 0.61 | 96 | |
| 20260503183624 | 59 | 205 | 4.3 | 11.3 | 0.01 | 0.61 | 0.61 | 96 | |
| 20260503183123 | 59 | 210 | 6.1 | 15.6 | 0.01 | 0.61 | 0.61 | 96 | |
| 20260503182623 | 60 | 265 | 6.1 | 15.6 | 0.01 | 0.61 | 0.61 | 96 | |
| 20260503182121 | 60 | 207 | 4.3 | 13.0 | 0.00 | 0.60 | 0.60 | 96 | |
| 20260503181622 | 60 | 207 | 3.5 | 13.0 | 0.00 | 0.60 | 0.60 | 96 | |
| 20260503181119 | 60 | 203 | 3.5 | 13.0 | 0.00 | 0.60 | 0.60 | 96 | |
| 20260503180850 | 60 | 234 | 3.5 | 8.7 | 0.00 | 0.60 | 0.60 | 96 | |
| 20260503180349 | 60 | 250 | 2.6 | 8.7 | 0.00 | 0.60 | 0.60 | 96 | |
| 20260503175621 | 60 | 207 | 2.6 | 8.7 | 0.00 | 0.60 | 0.60 | 96 | |
| 20260503175119 | 60 | 171 | 3.5 | 8.7 | 0.00 | 0.60 | 0.60 | 96 | |
| 20260503174843 | 60 | 198 | 4.3 | 10.4 | 0.00 | 0.60 | 0.60 | 96 | |
| 20260503174104 | 60 | 232 | 3.5 | 10.4 | 0.00 | 0.60 | 0.60 | 96 | |
| 20260503173553 | 60 | 232 | 3.5 | 10.4 | 0.00 | 0.60 | 0.60 | 96 | |
| 20260503173050 | 60 | 236 | 2.6 | 10.4 | 0.00 | 0.60 | 0.60 | 96 | |
| 20260503172545 | 60 | 198 | 2.6 | 7.8 | 0.00 | 0.60 | 0.60 | 96 | |
| 20260503172033 | 60 | 191 | 2.6 | 7.8 | 0.00 | 0.60 | 0.60 | 96 | |
| 20260503171529 | 60 | 213 | 1.7 | 7.0 | 0.00 | 0.60 | 0.60 | 96 | |
| 20260503171254 | 60 | 242 | 1.7 | 7.0 | 0.00 | 0.60 | 0.60 | 97 | |
| 20260503170517 | 60 | 243 | 2.6 | 7.8 | 0.00 | 0.60 | 0.60 | 96 | |
| 20260503150926 | 60 | 233 | 3.5 | 13.9 | 0.51 | 0.57 | 0.57 | 94 | |
| 20260503150420 | 60 | 228 | 4.3 | 15.6 | 0.55 | 0.57 | 0.57 | 94 | |
| 20260503140308 | 66 | 229 | 4.3 | 12.2 | 0.00 | 0.00 | 0.01 | 85 | |
| 20260503131203 | 67 | 306 | 9.6 | 23.5 | 0.00 | 0.00 | 0.00 | 77 | |
| 20260503130703 | 68 | 208 | 9.6 | 23.5 | 0.00 | 0.00 | 0.00 | 77 | |
| 20260503130150 | 69 | 212 | 9.6 | 26.1 | 0.00 | 0.00 | 0.00 | 75 | |
| 20260503110437 | 72 | 209 | 4.3 | 14.8 | 0.00 | 0.00 | 0.00 | 73 | |
| 20260503110157 | 72 | 158 | 5.2 | 15.6 | 0.00 | 0.00 | 0.00 | 72 | |
| 20260503090212 | 70 | 130 | 5.2 | 18.2 | 0.00 | 0.00 | 0.00 | 72 | |
| 20260503081104 | 69 | 171 | 5.2 | 15.6 | 0.00 | 0.00 | 0.00 | 74 | |
| 20260503080551 | 69 | 117 | 4.3 | 19.1 | 0.00 | 0.00 | 0.00 | 77 | |
| 20260503072504 | 64 | 152 | 2.6 | 10.4 | 0.00 | 0.00 | 0.00 | 86 | |
| 20260503072229 | 64 | 147 | 3.5 | 13.9 | 0.00 | 0.00 | 0.00 | 87 | |
| 20260503071453 | 63 | 152 | 1.7 | 13.9 | 0.00 | 0.00 | 0.00 | 88 | |
| 20260503070947 | 63 | 146 | 1.7 | 7.8 | 0.00 | 0.00 | 0.00 | 90 | |
| 20260503070441 | 62 | 144 | 1.7 | 7.8 | 0.00 | 0.00 | 0.00 | 90 | |
| 20260503070201 | 62 | 137 | 1.7 | 6.1 | 0.00 | 0.00 | 0.00 | 91 | |
| 20260503060327 | 59 | 169 | 0.9 | 7.8 | 0.00 | 0.00 | 0.00 | 96 | |
| 20260503054808 | 58 | 244 | 0.0 | 3.5 | 0.00 | 0.00 | 0.00 | 96 | |
| 20260503054302 | 58 | 244 | 0.0 | 0.0 | 0.00 | 0.00 | 0.00 | 96 | |
| 20260503053800 | 58 | 244 | 0.9 | 5.2 | 0.00 | 0.00 | 0.00 | 96 | |
| 20260503053303 | 58 | 244 | 0.9 | 5.2 | 0.00 | 0.00 | 0.00 | 96 | |
| 20260503052800 | 58 | 244 | 0.0 | 3.5 | 0.00 | 0.00 | 0.00 | 96 | |
| 20260503052259 | 58 | 163 | 0.0 | 3.5 | 0.00 | 0.00 | 0.00 | 96 | |
| 20260503052029 | 58 | 163 | 0.0 | 3.5 | 0.00 | 0.00 | 0.00 | 96 | |
| 20260503051529 | 58 | 163 | 0.0 | 0.0 | 0.00 | 0.00 | 0.00 | 96 | |
| 20260503051025 | 58 | 163 | 0.0 | 0.0 | 0.00 | 0.00 | 0.00 | 96 | |
| 20260503050254 | 58 | 163 | 0.0 | 3.5 | 0.00 | 0.00 | 0.00 | 96 | |
| 20260503045750 | 58 | 163 | 0.9 | 3.5 | 0.00 | 0.00 | 0.00 | 96 | |
| 20260503045250 | 58 | 162 | 0.0 | 3.5 | 0.00 | 0.00 | 0.00 | 96 | |
| 20260503044751 | 58 | 176 | 0.0 | 1.7 | 0.00 | 0.00 | 0.00 | 96 | |
| 20260503044252 | 57 | 176 | 0.0 | 5.2 | 0.00 | 0.00 | 0.00 | 96 | |
| 20260503043751 | 57 | 176 | 0.0 | 5.2 | 0.00 | 0.00 | 0.00 | 96 | |
| 20260503043251 | 57 | 215 | 0.0 | 0.0 | 0.00 | 0.00 | 0.00 | 95 | |
| 20260503042749 | 57 | 215 | 0.0 | 0.0 | 0.00 | 0.00 | 0.00 | 95 | |
| 20260503042248 | 57 | 215 | 0.0 | 0.0 | 0.00 | 0.00 | 0.00 | 95 | |
| 20260503042013 | 57 | 215 | 0.0 | 0.0 | 0.00 | 0.00 | 0.00 | 95 | |
| 20260503041235 | 57 | 215 | 0.0 | 0.0 | 0.00 | 0.00 | 0.00 | 95 | |
| 20260503040726 | 57 | 215 | 0.0 | 0.0 | 0.00 | 0.00 | 0.00 | 94 | |
| 20260503040220 | 57 | 215 | 0.0 | 0.0 | 0.00 | 0.00 | 0.00 | 94 | |
| 20260503035718 | 57 | 215 | 0.0 | 0.0 | 0.00 | 0.00 | 0.00 | 94 | |
| 20260503035218 | 57 | 215 | 0.0 | 0.0 | 0.00 | 0.00 | 0.00 | 94 | |
| 20260503034715 | 57 | 215 | 0.0 | 0.0 | 0.00 | 0.00 | 0.00 | 94 | |
| 20260503034447 | 57 | 215 | 0.0 | 0.0 | 0.00 | 0.00 | 0.00 | 94 | |
| 20260503033704 | 58 | 215 | 0.0 | 0.0 | 0.00 | 0.00 | 0.00 | 94 | |
| 20260503033206 | 58 | 215 | 0.0 | 0.0 | 0.00 | 0.00 | 0.00 | 93 | |
| 20260503032704 | 58 | 215 | 0.9 | 4.3 | 0.00 | 0.00 | 0.00 | 93 | |
| 20260503032204 | 58 | 215 | 0.9 | 4.3 | 0.00 | 0.00 | 0.00 | 93 | |
| 20260503031935 | 58 | 213 | 0.0 | 0.0 | 0.00 | 0.00 | 0.00 | 93 | |
| 20260503031206 | 58 | 213 | 0.0 | 0.0 | 0.00 | 0.00 | 0.00 | 93 | |
| 20260503030705 | 58 | 213 | 0.0 | 0.9 | 0.00 | 0.00 | 0.00 | 93 | |
| 20260503030205 | 59 | 213 | 0.0 | 4.3 | 0.00 | 0.00 | 0.00 | 93 | |
| 20260503025704 | 59 | 213 | 0.0 | 4.3 | 0.00 | 0.00 | 0.00 | 93 | |
| 20260503025200 | 59 | 213 | 0.0 | 0.0 | 0.00 | 0.00 | 0.00 | 93 | |
| 20260503024648 | 59 | 213 | 0.0 | 0.0 | 0.00 | 0.00 | 0.00 | 93 | |
| 20260503024420 | 59 | 213 | 0.0 | 0.0 | 0.00 | 0.00 | 0.00 | 93 | |
| 20260503024408 | 59 | 213 | 0.9 | 15.6 | 0.00 | 0.00 | 0.00 | 93 | |
| 20260503023148 | 59 | 213 | 1.7 | 15.6 | 0.00 | 0.00 | 0.00 | 93 | |
| 20260503022919 | 59 | 144 | 3.5 | 15.6 | 0.00 | 0.00 | 0.00 | 93 | |
| 20260503022150 | 59 | 160 | 4.3 | 15.6 | 0.00 | 0.00 | 0.00 | 93 | |
| 20260503021649 | 59 | 215 | 4.3 | 15.6 | 0.00 | 0.00 | 0.00 | 94 | |
| 20260503021149 | 59 | 181 | 3.5 | 10.4 | 0.00 | 0.00 | 0.00 | 94 | |
| 20260503020648 | 58 | 185 | 2.6 | 10.4 | 0.00 | 0.00 | 0.00 | 94 | |
| 20260503020144 | 58 | 184 | 2.6 | 8.7 | 0.00 | 0.00 | 0.00 | 94 | |
| 20260503015646 | 58 | 189 | 0.9 | 6.1 | 0.00 | 0.00 | 0.00 | 94 | |
| 20260503015145 | 58 | 161 | 0.0 | 5.2 | 0.00 | 0.00 | 0.00 | 94 | |
| 20260503014644 | 58 | 160 | 0.0 | 6.1 | 0.00 | 0.00 | 0.00 | 95 | |
| 20260503014144 | 57 | 160 | 0.0 | 6.1 | 0.00 | 0.00 | 0.00 | 94 | |
| 20260503013646 | 57 | 161 | 0.0 | 6.1 | 0.00 | 0.00 | 0.00 | 94 | |
| 20260503013415 | 57 | 161 | 0.9 | 7.0 | 0.00 | 0.00 | 0.00 | 94 | |
| 20260503012644 | 57 | 160 | 0.9 | 7.0 | 0.00 | 0.00 | 0.00 | 94 | |
| 20260503012145 | 56 | 43 | 1.7 | 5.2 | 0.00 | 0.00 | 0.00 | 93 | |
| 20260503012140 | 56 | 43 | 0.9 | 5.2 | 0.00 | 0.00 | 0.00 | 93 | |
| 20260503011358 | 56 | 43 | 0.0 | 0.0 | 0.00 | 0.00 | 0.00 | 92 | |
| 20260503010615 | 56 | 43 | 0.0 | 0.0 | 0.00 | 0.00 | 0.00 | 92 | |
| 20260503010107 | 56 | 43 | 0.0 | 0.0 | 0.00 | 0.00 | 0.00 | 92 | |
| 20260503005600 | 56 | 43 | 1.7 | 5.2 | 0.00 | 0.00 | 0.00 | 92 | |
| 20260503005100 | 56 | 43 | 1.7 | 5.2 | 0.00 | 0.00 | 0.00 | 92 | |
| 20260503004559 | 56 | 43 | 0.0 | 3.5 | 0.00 | 0.00 | 0.00 | 91 | |
| 20260503004059 | 56 | 43 | 1.7 | 5.2 | 0.00 | 0.00 | 0.00 | 91 | |
| 20260503003831 | 56 | 43 | 2.6 | 5.2 | 0.00 | 0.00 | 0.00 | 91 | |
| 20260503003058 | 57 | 43 | 1.7 | 4.3 | 0.00 | 0.00 | 0.00 | 91 | |
| 20260503002600 | 57 | 43 | 0.9 | 3.5 | 0.00 | 0.00 | 0.00 | 91 | |
| 20260503002058 | 57 | 43 | 0.0 | 0.0 | 0.00 | 0.00 | 0.00 | 91 | |
| 20260503001552 | 57 | 43 | 0.0 | 0.0 | 0.00 | 0.00 | 0.00 | 90 | |
| 20260503001040 | 57 | 43 | 0.0 | 0.0 | 0.00 | 0.00 | 0.00 | 90 | |
| 20260503000530 | 57 | 43 | 0.0 | 0.0 | 0.00 | 0.00 | 0.00 | 90 | |
| 20260503000031 | 57 | 43 | 0.0 | 0.0 | 0.00 | 0.00 | 0.00 | 90 | |
| 20260503000026 | 57 | 43 | 0.0 | 0.0 | 0.00 | 0.00 | 0.00 | 90 | |
| 20260502235025 | 57 | 43 | 0.0 | 0.0 | 0.00 | 0.00 | 0.00 | 90 | |
| 20260502234523 | 58 | 43 | 0.0 | 0.0 | 0.00 | 0.00 | 0.00 | 90 | |
| 20260502234022 | 58 | 43 | 0.0 | 0.0 | 0.00 | 0.00 | 0.00 | 90 | |
| 20260502233521 | 58 | 43 | 0.9 | 4.3 | 0.00 | 0.00 | 0.00 | 90 | |
| 20260502233252 | 58 | 43 | 0.9 | 4.3 | 0.00 | 0.00 | 0.00 | 90 | |
| 20260502232753 | 58 | 43 | 1.7 | 4.3 | 0.00 | 0.00 | 0.00 | 90 | |
| 20260502232020 | 58 | 43 | 3.5 | 7.0 | 0.00 | 0.00 | 0.00 | 90 | |
| 20260502231521 | 58 | 43 | 5.2 | 7.8 | 0.00 | 0.00 | 0.00 | 90 | |
| 20260502231020 | 58 | 44 | 6.1 | 10.4 | 0.00 | 0.00 | 0.00 | 90 | |
| 20260502230523 | 58 | 37 | 7.8 | 12.2 | 0.00 | 0.00 | 0.00 | 90 | |
| 20260502230018 | 59 | 38 | 7.8 | 12.2 | 0.00 | 0.00 | 0.00 | 91 | |
| 20260502225518 | 59 | 38 | 8.7 | 13.9 | 0.00 | 0.00 | 0.00 | 91 | |
| 20260502225017 | 59 | 46 | 10.4 | 17.4 | 0.00 | 0.00 | 0.00 | 91 | |
| 20260502224516 | 59 | 44 | 10.4 | 17.4 | 0.00 | 0.00 | 0.00 | 91 | |
| 20260502224018 | 60 | 46 | 9.6 | 16.5 | 0.00 | 0.00 | 0.00 | 91 | |
| 20260502223517 | 60 | 41 | 10.4 | 16.5 | 0.00 | 0.00 | 0.00 | 91 | |
| 20260502223016 | 60 | 39 | 9.6 | 17.4 | 0.00 | 0.00 | 0.00 | 91 | |
| 20260502222515 | 60 | 36 | 8.7 | 17.4 | 0.00 | 0.00 | 0.00 | 91 | |
| 20260502222018 | 60 | 38 | 7.8 | 12.2 | 0.00 | 0.00 | 0.00 | 91 | |
| 20260502221515 | 60 | 36 | 7.0 | 10.4 | 0.00 | 0.00 | 0.00 | 90 | |
| 20260502221013 | 60 | 42 | 7.0 | 10.4 | 0.00 | 0.00 | 0.00 | 92 | |
| 20260502220513 | 61 | 42 | 7.0 | 12.2 | 0.00 | 0.00 | 0.00 | 90 | |
| 20260502220014 | 60 | 54 | 4.3 | 12.2 | 0.00 | 0.00 | 0.00 | 90 | |
| 20260502215513 | 60 | 71 | 2.6 | 9.6 | 0.00 | 0.00 | 0.00 | 91 | |
| 20260502215013 | 60 | 68 | 3.5 | 11.3 | 0.00 | 0.00 | 0.00 | 91 | |
| 20260502214509 | 60 | 154 | 6.1 | 11.3 | 0.00 | 0.00 | 0.00 | 90 | |
| 20260502214004 | 60 | 60 | 7.0 | 11.3 | 0.00 | 0.00 | 0.00 | 90 | |
| 20260502213450 | 60 | 49 | 6.1 | 11.3 | 0.00 | 0.00 | 0.00 | 90 | |
| 20260502212949 | 60 | 51 | 6.1 | 8.7 | 0.00 | 0.00 | 0.00 | 90 | |
| 20260502212944 | 60 | 49 | 6.1 | 9.6 | 0.00 | 0.00 | 0.00 | 89 | |
| 20260502211936 | 60 | 49 | 6.1 | 9.6 | 0.00 | 0.00 | 0.00 | 89 | |
| 20260502211430 | 60 | 49 | 6.1 | 10.4 | 0.00 | 0.00 | 0.00 | 89 | |
| 20260502210921 | 60 | 48 | 6.1 | 8.7 | 0.00 | 0.00 | 0.00 | 88 | |
| 20260502210420 | 60 | 50 | 5.2 | 8.7 | 0.00 | 0.00 | 0.00 | 87 | |
| 20260502205913 | 60 | 35 | 5.2 | 8.7 | 0.00 | 0.00 | 0.00 | 87 | |
| 20260502205407 | 60 | 24 | 5.2 | 8.7 | 0.00 | 0.00 | 0.00 | 87 | |
| 20260502204902 | 61 | 10 | 6.1 | 8.7 | 0.00 | 0.00 | 0.00 | 86 | |
| 20260502204354 | 61 | 10 | 5.2 | 7.8 | 0.00 | 0.00 | 0.00 | 86 | |
| 20260502203848 | 61 | 9 | 4.3 | 7.8 | 0.00 | 0.00 | 0.00 | 86 | |
| 20260502203342 | 61 | 9 | 3.5 | 6.1 | 0.00 | 0.00 | 0.00 | 85 | |
| 20260502202835 | 61 | 9 | 4.3 | 7.0 | 0.00 | 0.00 | 0.00 | 85 | |
| 20260502202329 | 61 | 5 | 3.5 | 7.0 | 0.00 | 0.00 | 0.00 | 85 | |
| 20260502201824 | 61 | 5 | 1.7 | 6.1 | 0.00 | 0.00 | 0.00 | 85 | |
| 20260502201317 | 61 | 5 | 0.9 | 5.2 | 0.00 | 0.00 | 0.00 | 85 | |
| 20260502200812 | 61 | 5 | 0.0 | 2.6 | 0.00 | 0.00 | 0.00 | 84 | |
| 20260502200301 | 61 | 5 | 0.0 | 2.6 | 0.00 | 0.00 | 0.00 | 84 | |
| 20260502195758 | 62 | 5 | 0.0 | 0.0 | 0.00 | 0.00 | 0.00 | 82 | |
| 20260502195253 | 62 | 5 | 0.0 | 0.9 | 0.00 | 0.00 | 0.00 | 82 | |
| 20260502194748 | 62 | 5 | 0.0 | 0.9 | 0.00 | 0.00 | 0.00 | 81 | |
| 20260502194243 | 63 | 5 | 0.0 | 0.0 | 0.00 | 0.00 | 0.00 | 80 | |
| 20260502193735 | 63 | 5 | 0.0 | 4.3 | 0.00 | 0.00 | 0.00 | 80 | |
| 20260502193230 | 63 | 5 | 0.9 | 7.0 | 0.00 | 0.00 | 0.00 | 80 | |
| 20260502192719 | 64 | 5 | 0.9 | 7.0 | 0.00 | 0.00 | 0.00 | 79 | |
| 20260502192219 | 64 | 290 | 0.0 | 1.7 | 0.00 | 0.00 | 0.00 | 77 | |
| 20260502191711 | 65 | 289 | 0.0 | 0.0 | 0.00 | 0.00 | 0.00 | 76 | |
| 20260502191206 | 66 | 289 | 0.0 | 0.0 | 0.00 | 0.00 | 0.00 | 75 | |
| 20260502190659 | 67 | 289 | 0.0 | 0.0 | 0.00 | 0.00 | 0.00 | 75 | |
| 20260502190421 | 67 | 289 | 0.0 | 1.7 | 0.00 | 0.00 | 0.00 | 74 | |
| 20260502185648 | 68 | 290 | 0.0 | 1.7 | 0.00 | 0.00 | 0.00 | 73 | |
| 20260502185141 | 68 | 288 | 0.0 | 4.3 | 0.00 | 0.00 | 0.00 | 73 |